Location: Brno
(49.2000°N, 16.6330°E)
Time: 14:59:01
(UTC+01:00)

Cosmos 1603 - Visible Passes

Search period start: 24 March 2017 00:00
Search period end: 03 April 2017 01:00
Orbit: 830 x 860 km, 71.0° (Epoch: 22 March)

Date Brightness Start Highest point End Pass type
(mag) Time Alt. Az. Time Alt. Az. Time Alt. Az.
26 Mar 6.8 05:59:57 10° ESE 06:02:30 13° E 06:05:04 10° ENE visible
27 Mar 6.8 05:46:12 10° ESE 05:48:36 13° E 05:51:01 10° ENE visible
28 Mar 6.8 05:32:28 10° ESE 05:34:42 12° E 05:36:56 10° ENE visible
29 Mar 6.7 05:18:47 10° ESE 05:20:48 12° E 05:22:50 10° ENE visible
30 Mar 6.7 05:05:06 10° ESE 05:06:55 12° E 05:08:44 10° ENE visible
31 Mar 6.7 04:51:27 10° ESE 04:53:01 11° E 04:54:35 10° ENE visible
01 Apr 6.7 04:37:51 10° ESE 04:39:07 11° E 04:40:22 10° E visible
02 Apr 6.7 04:24:23 10° ESE 04:25:13 10° E 04:26:03 10° E visible
